Time,TemperatureF,DewpointF,PressureIn,WindDirection,WindDirectionDegrees,WindSpeedMPH,WindSpeedGustMPH,Humidity,HourlyPrecipIn,Conditions,Clouds,dailyrainin,SolarRadiationWatts/m^2,SoftwareType,DateUTC
2013-03-11 00:22:00,30.0,29.0,-100.00,NNW,336,1.0,3.0,96,0.00,,,0.12,0.000000,,2013-03-11 08:22:00,
2013-03-11 00:32:00,30.0,29.0,-100.00,NNW,336,1.0,3.0,96,0.00,,,0.12,0.000000,,2013-03-11 08:32:00,
2013-03-11 00:42:00,30.0,29.0,-100.00,NNW,336,1.0,3.0,96,0.00,,,0.12,0.000000,,2013-03-11 08:42:00,
2013-03-11 00:51:00,30.0,29.0,-100.00,NNW,336,1.0,3.0,96,0.00,,,0.12,0.000000,,2013-03-11 08:51:00,
2013-03-11 01:22:00,30.0,29.0,-100.00,WNW,294,1.0,4.0,96,0.00,,,0.12,0.000000,,2013-03-11 09:22:00,
2013-03-11 01:32:00,30.0,29.0,-100.00,WNW,294,1.0,4.0,96,0.00,,,0.12,0.000000,,2013-03-11 09:32:00,
2013-03-11 01:42:00,30.0,29.0,-100.00,WNW,294,1.0,4.0,96,0.00,,,0.12,0.000000,,2013-03-11 09:42:00,
2013-03-11 01:52:00,30.0,29.0,-100.00,WNW,294,1.0,4.0,96,0.00,,,0.12,0.000000,,2013-03-11 09:52:00,
2013-03-11 02:22:00,29.0,28.0,-100.00,North,11,1.0,3.0,96,0.00,,,0.12,0.000000,,2013-03-11 10:22:00,
2013-03-11 02:32:00,29.0,28.0,-100.00,North,11,1.0,3.0,96,0.00,,,0.12,0.000000,,2013-03-11 10:32:00,
2013-03-11 02:42:00,29.0,28.0,-100.00,North,11,1.0,3.0,96,0.00,,,0.12,0.000000,,2013-03-11 10:42:00,
2013-03-11 02:52:00,29.0,28.0,-100.00,North,11,1.0,3.0,96,0.00,,,0.12,0.000000,,2013-03-11 10:52:00,
2013-03-11 03:22:00,25.0,24.0,-100.00,WSW,242,1.0,2.0,95,0.00,,,-99.99,0.000000,,2013-03-11 11:22:00,
2013-03-11 03:32:00,25.0,24.0,-100.00,WSW,242,1.0,2.0,95,0.00,,,-99.99,0.000000,,2013-03-11 11:32:00,
2013-03-11 03:42:00,25.0,24.0,-100.00,WSW,242,1.0,2.0,95,0.00,,,-99.99,0.000000,,2013-03-11 11:42:00,
2013-03-11 03:52:00,25.0,24.0,-100.00,WSW,242,1.0,2.0,95,0.00,,,-99.99,0.000000,,2013-03-11 11:52:00,
2013-03-11 04:22:00,23.0,22.0,-100.00,ESE,108,0.0,0.0,95,0.00,,,-99.99,0.000000,,2013-03-11 12:22:00,
2013-03-11 04:32:00,23.0,22.0,-100.00,ESE,108,0.0,0.0,95,0.00,,,-99.99,0.000000,,2013-03-11 12:32:00,
2013-03-11 04:42:00,23.0,22.0,-100.00,ESE,108,0.0,0.0,95,0.00,,,-99.99,0.000000,,2013-03-11 12:42:00,
2013-03-11 04:52:00,23.0,22.0,-100.00,ESE,108,0.0,0.0,95,0.00,,,-99.99,0.000000,,2013-03-11 12:52:00,
2013-03-11 05:22:00,25.0,24.0,-100.00,SSW,202,0.0,1.0,95,0.00,,,-99.99,0.000000,,2013-03-11 13:22:00,
2013-03-11 05:32:00,25.0,24.0,-100.00,SSW,202,0.0,1.0,95,0.00,,,-99.99,0.000000,,2013-03-11 13:32:00,
2013-03-11 05:42:00,25.0,24.0,-100.00,SSW,202,0.0,1.0,95,0.00,,,-99.99,0.000000,,2013-03-11 13:42:00,
2013-03-11 05:52:00,25.0,24.0,-100.00,SSW,202,0.0,1.0,95,0.00,,,-99.99,0.000000,,2013-03-11 13:52:00,
2013-03-11 06:22:00,26.0,25.0,-100.00,South,173,0.0,0.0,96,0.00,,,0.12,0.000000,,2013-03-11 14:22:00,
2013-03-11 06:32:00,26.0,25.0,-100.00,South,173,0.0,0.0,96,0.00,,,0.12,0.000000,,2013-03-11 14:32:00,
2013-03-11 06:42:00,26.0,25.0,-100.00,South,173,0.0,0.0,96,0.00,,,0.12,0.000000,,2013-03-11 14:42:00,
2013-03-11 06:52:00,26.0,25.0,-100.00,South,173,0.0,0.0,96,0.00,,,0.12,0.000000,,2013-03-11 14:52:00,
2013-03-11 07:22:00,27.0,26.0,-100.00,West,264,1.0,2.0,96,0.00,,,0.12,0.000000,,2013-03-11 15:22:00,
2013-03-11 07:32:00,27.0,26.0,-100.00,West,264,1.0,2.0,96,0.00,,,0.12,0.000000,,2013-03-11 15:32:00,
2013-03-11 07:42:00,27.0,26.0,-100.00,West,264,1.0,2.0,96,0.00,,,0.12,0.000000,,2013-03-11 15:42:00,
2013-03-11 07:52:00,27.0,26.0,-100.00,West,264,1.0,2.0,96,0.00,,,0.12,0.000000,,2013-03-11 15:52:00,
2013-03-11 08:22:00,26.0,25.0,-100.00,WNW,300,2.0,3.0,94,0.00,,,0.12,0.000000,,2013-03-11 16:22:00,
2013-03-11 08:32:00,26.0,25.0,-100.00,WNW,300,2.0,3.0,94,0.00,,,0.12,0.000000,,2013-03-11 16:32:00,
2013-03-11 08:42:00,26.0,25.0,-100.00,WNW,300,2.0,3.0,94,0.00,,,0.12,0.000000,,2013-03-11 16:42:00,
2013-03-11 08:52:00,26.0,25.0,-100.00,WNW,300,2.0,3.0,94,0.00,,,0.12,0.000000,,2013-03-11 16:52:00,
2013-03-11 09:24:00,24.0,22.0,-100.00,WNW,290,1.0,4.0,92,0.00,,,-99.99,0.000000,,2013-03-11 17:24:00,
2013-03-11 09:34:00,24.0,22.0,-100.00,WNW,290,1.0,4.0,92,0.00,,,-99.99,0.000000,,2013-03-11 17:34:00,
2013-03-11 09:42:00,24.0,22.0,-100.00,WNW,290,1.0,4.0,92,0.00,,,-99.99,0.000000,,2013-03-11 17:42:00,
2013-03-11 09:52:00,24.0,22.0,-100.00,WNW,290,1.0,4.0,92,0.00,,,-99.99,0.000000,,2013-03-11 17:52:00,
2013-03-11 10:22:00,24.0,22.0,-100.00,WNW,285,1.0,3.0,91,0.00,,,0.12,3.000000,,2013-03-11 18:22:00,
2013-03-11 10:32:00,24.0,22.0,-100.00,WNW,285,1.0,3.0,91,0.00,,,0.12,3.000000,,2013-03-11 18:32:00,
2013-03-11 10:42:00,24.0,22.0,-100.00,WNW,285,1.0,3.0,91,0.00,,,0.12,3.000000,,2013-03-11 18:42:00,
2013-03-11 10:52:00,24.0,22.0,-100.00,WNW,285,1.0,3.0,91,0.00,,,0.12,3.000000,,2013-03-11 18:52:00,
2013-03-11 11:22:00,26.0,24.0,-100.00,NW,310,2.0,4.0,93,0.00,,,0.12,8.000000,,2013-03-11 19:22:00,
2013-03-11 11:32:00,26.0,24.0,-100.00,NW,310,2.0,4.0,93,0.00,,,0.12,8.000000,,2013-03-11 19:32:00,
2013-03-11 11:42:00,26.0,24.0,-100.00,NW,310,2.0,4.0,93,0.00,,,0.12,8.000000,,2013-03-11 19:42:00,
2013-03-11 11:52:00,26.0,24.0,-100.00,NW,310,2.0,4.0,93,0.00,,,0.12,8.000000,,2013-03-11 19:52:00,
2013-03-11 12:22:00,28.0,25.0,-100.00,WNW,284,3.0,5.0,90,0.00,,,0.12,23.000000,,2013-03-11 20:22:00,
2013-03-11 12:32:00,28.0,25.0,-100.00,WNW,284,3.0,5.0,90,0.00,,,0.12,23.000000,,2013-03-11 20:32:00,
2013-03-11 12:42:00,28.0,25.0,-100.00,WNW,284,3.0,5.0,90,0.00,,,0.12,23.000000,,2013-03-11 20:42:00,
2013-03-11 12:52:00,28.0,25.0,-100.00,WNW,284,3.0,5.0,90,0.00,,,0.12,23.000000,,2013-03-11 20:52:00,
2013-03-11 13:22:00,29.0,25.0,-100.00,North,350,2.0,3.0,86,0.00,,,0.12,33.000000,,2013-03-11 21:22:00,
2013-03-11 13:32:00,29.0,25.0,-100.00,North,350,2.0,3.0,86,0.00,,,0.12,33.000000,,2013-03-11 21:32:00,
2013-03-11 13:43:00,29.0,25.0,-100.00,North,350,2.0,3.0,86,0.00,,,0.12,33.000000,,2013-03-11 21:43:00,
2013-03-11 13:52:00,29.0,25.0,-100.00,North,350,2.0,3.0,86,0.00,,,0.12,33.000000,,2013-03-11 21:52:00,
2013-03-11 14:22:00,31.0,26.0,-100.00,North,4,2.0,4.0,83,0.02,,,0.14,36.000000,,2013-03-11 22:22:00,
2013-03-11 14:32:00,31.0,26.0,-100.00,North,4,2.0,4.0,83,0.02,,,0.14,36.000000,,2013-03-11 22:32:00,
2013-03-11 14:43:00,31.0,26.0,-100.00,North,4,2.0,4.0,83,0.02,,,0.14,36.000000,,2013-03-11 22:43:00,
2013-03-11 14:52:00,31.0,26.0,-100.00,North,4,2.0,4.0,83,0.02,,,0.14,36.000000,,2013-03-11 22:52:00,
2013-03-11 15:22:00,36.0,27.0,-100.00,NNE,33,3.0,6.0,69,0.03,,,0.17,98.000000,,2013-03-11 23:22:00,
2013-03-11 15:32:00,36.0,27.0,-100.00,NNE,33,3.0,6.0,69,0.03,,,0.17,98.000000,,2013-03-11 23:32:00,
2013-03-11 15:42:00,36.0,27.0,-100.00,NNE,33,3.0,6.0,69,0.03,,,0.17,98.000000,,2013-03-11 23:42:00,
2013-03-11 15:52:00,36.0,27.0,-100.00,NNE,33,3.0,6.0,69,0.03,,,0.17,98.000000,,2013-03-11 23:52:00,
2013-03-11 16:22:00,37.0,28.0,-100.00,NE,35,3.0,7.0,69,0.02,,,0.19,102.000000,,2013-03-12 00:22:00,
2013-03-11 16:32:00,37.0,28.0,-100.00,NE,35,3.0,7.0,69,0.02,,,0.19,102.000000,,2013-03-12 00:32:00,
2013-03-11 16:42:00,37.0,28.0,-100.00,NE,35,3.0,7.0,69,0.02,,,0.19,102.000000,,2013-03-12 00:42:00,
2013-03-11 16:52:00,37.0,28.0,-100.00,NE,35,3.0,7.0,69,0.02,,,0.19,102.000000,,2013-03-12 00:52:00,
2013-03-11 17:22:00,40.0,28.0,-100.00,ENE,67,2.0,6.0,61,0.06,,,0.24,94.000000,,2013-03-12 01:22:00,
2013-03-11 17:32:00,40.0,28.0,-100.00,ENE,67,2.0,6.0,61,0.06,,,0.24,94.000000,,2013-03-12 01:32:00,
2013-03-11 17:42:00,40.0,28.0,-100.00,ENE,67,2.0,6.0,61,0.06,,,0.24,94.000000,,2013-03-12 01:42:00,
2013-03-11 17:52:00,40.0,28.0,-100.00,ENE,67,2.0,6.0,61,0.06,,,0.24,94.000000,,2013-03-12 01:52:00,
2013-03-11 18:22:00,41.0,27.0,-100.00,WSW,244,1.0,3.0,58,0.04,,,0.21,66.000000,,2013-03-12 02:22:00,
2013-03-11 18:32:00,41.0,27.0,-100.00,WSW,244,1.0,3.0,58,0.04,,,0.21,66.000000,,2013-03-12 02:32:00,
2013-03-11 18:42:00,41.0,27.0,-100.00,WSW,244,1.0,3.0,58,0.04,,,0.21,66.000000,,2013-03-12 02:42:00,
2013-03-11 18:51:00,41.0,27.0,-100.00,WSW,244,1.0,3.0,58,0.04,,,0.21,66.000000,,2013-03-12 02:51:00,
2013-03-11 19:22:00,32.0,25.0,-100.00,WSW,238,2.0,3.0,76,0.02,,,0.20,80.000000,,2013-03-12 03:22:00,
2013-03-11 19:32:00,32.0,25.0,-100.00,WSW,238,2.0,3.0,76,0.02,,,0.20,80.000000,,2013-03-12 03:32:00,
2013-03-11 19:42:00,32.0,25.0,-100.00,WSW,238,2.0,3.0,76,0.02,,,0.20,80.000000,,2013-03-12 03:42:00,
2013-03-11 19:51:00,32.0,25.0,-100.00,WSW,238,2.0,3.0,76,0.02,,,0.20,80.000000,,2013-03-12 03:51:00,
2013-03-11 20:22:00,26.0,24.0,-100.00,SE,145,1.0,4.0,92,0.00,,,0.19,13.000000,,2013-03-12 04:22:00,
2013-03-11 20:32:00,26.0,24.0,-100.00,SE,145,1.0,4.0,92,0.00,,,0.19,13.000000,,2013-03-12 04:32:00,
2013-03-11 20:42:00,26.0,24.0,-100.00,SE,145,1.0,4.0,92,0.00,,,0.19,13.000000,,2013-03-12 04:42:00,
2013-03-11 20:52:00,26.0,24.0,-100.00,SE,145,1.0,4.0,92,0.00,,,0.19,13.000000,,2013-03-12 04:52:00,
2013-03-11 21:22:00,22.0,20.0,-100.00,SE,124,1.0,3.0,93,0.00,,,0.19,1.000000,,2013-03-12 05:22:00,
2013-03-11 21:32:00,22.0,20.0,-100.00,SE,124,1.0,3.0,93,0.00,,,0.19,1.000000,,2013-03-12 05:32:00,
2013-03-11 21:42:00,22.0,20.0,-100.00,SE,124,1.0,3.0,93,0.00,,,0.19,1.000000,,2013-03-12 05:42:00,
2013-03-11 21:51:00,22.0,20.0,-100.00,SE,124,1.0,3.0,93,0.00,,,0.19,1.000000,,2013-03-12 05:51:00,
2013-03-11 22:22:00,21.0,19.0,-100.00,SW,225,2.0,7.0,91,0.00,,,0.19,0.000000,,2013-03-12 06:22:00,
2013-03-11 22:32:00,21.0,19.0,-100.00,SW,225,2.0,7.0,91,0.00,,,0.19,0.000000,,2013-03-12 06:32:00,
2013-03-11 23:21:00,21.0,16.0,-100.00,SE,132,1.0,8.0,82,-99.99,,,0.19,0.000000,,2013-03-12 07:21:00,